Location: Buckland
(65.9785°N, 161.1281°W)
Time: 15:22:23
(UTC+00:00)

Transit 4A - Pass Details

Date: 05 October 2022
Orbit: 871 x 972 km, 66.8° (Epoch: 29 November)

Event Time Altitude Azimuth Distance (km) Brightness Sun altitude
Exits shadow 12:38:31 42° 276° (W) 1,267 8.3 -25.1°
Maximum altitude 12:40:41 82° 358° (N) 908 7.8 -24.9°
Drops below altitude 10° 12:46:35 10° 88° (E) 2,543 10.7 -24.6°
Sets 12:49:03 0° 89° (E) 3,475 11.4 -24.4°
